• In Italy
  • List of Countries
  • For 7 days
  • Water Temperature
  • Satellite Maps
  • Weather Map
  • Weather Widgets
  • user-avatar
    Login

    Hourly Weather Darwin

    Today, 19 September, Wednesday

    Time Temperature Precipitation Wind Pressure Humidity
    00:00 +27°C° 0 mm 1 mps 759 mmHg 69%
    01:00 +27°C° 0 mm 1 mps 759 mmHg 69%
    02:00 +27°C° 0 mm 1 mps 759 mmHg 68%
    03:00 +27°C° 0 mm 1 mps 758 mmHg 68%
    04:00 +27°C° 0 mm 1 mps 758 mmHg 69%
    05:00 +26°C° 0 mm 1 mps 759 mmHg 71%
    06:00 +26°C° 0 mm 1 mps 759 mmHg 72%
    07:00 +28°C° 0 mm 1 mps 759 mmHg 61%
    08:00 +31°C° 0 mm 1 mps 759 mmHg 50%
    09:00 +35°C° 0 mm 1 mps 760 mmHg 39%
    10:00 +37°C° 0 mm 1 mps 759 mmHg 33%
    11:00 +39°C° 0 mm 2 mps 759 mmHg 27%
    12:00 +41°C° 0 mm 2 mps 758 mmHg 21%
    13:00 +42°C° 0 mm 3 mps 757 mmHg 21%
    14:00 +40°C° 0 mm 3 mps 757 mmHg 21%
    15:00 +40°C° 0 mm 4 mps 756 mmHg 27%
    16:00 +37°C° 0 mm 4 mps 756 mmHg 33%
    17:00 +35°C° 0 mm 4 mps 756 mmHg 39%
    18:00 +33°C° 0 mm 3 mps 756 mmHg 44%
    19:00 +31°C° 0 mm 3 mps 757 mmHg 50%
    20:00 +30°C° 0 mm 2 mps 757 mmHg 55%
    21:00 +29°C° 0 mm 2 mps 758 mmHg 61%
    22:00 +29°C° 0 mm 2 mps 758 mmHg 62%
    23:00 +28°C° 0 mm 2 mps 758 mmHg 63%

    Tomorrow, 20 September, Thursday

    Time Temperature Precipitation Wind Pressure Humidity
    00:00 +28°C° 0 mm 2 mps 758 mmHg 65%
    01:00 +28°C° 0 mm 3 mps 758 mmHg 66%
    02:00 +28°C° 0 mm 3 mps 758 mmHg 68%
    03:00 +27°C° 0 mm 3 mps 758 mmHg 70%
    04:00 +27°C° 0 mm 3 mps 758 mmHg 72%
    05:00 +26°C° 0 mm 2 mps 758 mmHg 74%
    06:00 +26°C° 0 mm 2 mps 759 mmHg 76%
    07:00 +28°C° 0 mm 2 mps 759 mmHg 64%
    08:00 +30°C° 0 mm 3 mps 759 mmHg 53%
    09:00 +33°C° 0 mm 3 mps 759 mmHg 41%
    10:00 +35°C° 0 mm 3 mps 759 mmHg 34%
    11:00 +37°C° 0 mm 4 mps 758 mmHg 28%
    12:00 +40°C° 0 mm 5 mps 758 mmHg 21%
    13:00 +40°C° 0 mm 5 mps 757 mmHg 21%
    14:00 +40°C° 0 mm 6 mps 756 mmHg 21%
    15:00 +41°C° 0 mm 6 mps 756 mmHg 21%
    16:00 +39°C° 0 mm 6 mps 756 mmHg 27%
    17:00 +36°C° 0 mm 6 mps 756 mmHg 32%
    18:00 +34°C° 0 mm 6 mps 756 mmHg 38%
    19:00 +33°C° 0 mm 5 mps 757 mmHg 43%
    20:00 +32°C° 0 mm 4 mps 758 mmHg 48%
    21:00 +30°C° 0 mm 3 mps 759 mmHg 53%
    22:00 +30°C° 0.1 mm 3 mps 759 mmHg 57%
    23:00 +29°C° 0.1 mm 3 mps 759 mmHg 60%

    Day after tomorrow, 21 September, Friday

    Time Temperature Precipitation Wind Pressure Humidity
    00:00 +29°C° 0.1 mm 2 mps 759 mmHg 63%
    01:00 +28°C° 0 mm 2 mps 759 mmHg 67%
    02:00 +28°C° 0 mm 2 mps 759 mmHg 70%
    03:00 +27°C° 0 mm 2 mps 758 mmHg 73%
    04:00 +27°C° 0 mm 2 mps 759 mmHg 76%
    05:00 +26°C° 0 mm 2 mps 759 mmHg 78%
    06:00 +26°C° 0 mm 2 mps 759 mmHg 80%
    07:00 +28°C° 0 mm 3 mps 759 mmHg 68%
    08:00 +30°C° 0 mm 3 mps 760 mmHg 55%
    09:00 +34°C° 0 mm 3 mps 760 mmHg 43%
    10:00 +35°C° 0 mm 3 mps 760 mmHg 35%
    11:00 +37°C° 0 mm 4 mps 759 mmHg 28%
    12:00 +40°C° 0 mm 4 mps 759 mmHg 21%
    13:00 +40°C° 0 mm 4 mps 758 mmHg 21%
    14:00 +40°C° 0 mm 4 mps 757 mmHg 22%
    15:00 +41°C° 0 mm 4 mps 756 mmHg 22%
    16:00 +38°C° 0 mm 4 mps 757 mmHg 27%
    17:00 +36°C° 0 mm 4 mps 757 mmHg 32%
    18:00 +34°C° 0 mm 3 mps 757 mmHg 37%
    19:00 +33°C° 0 mm 3 mps 758 mmHg 45%
    20:00 +30°C° 0 mm 2 mps 758 mmHg 53%
    21:00 +29°C° 0 mm 2 mps 759 mmHg 61%
    22:00 +29°C° 0 mm 2 mps 759 mmHg 63%
    23:00 +28°C° 0 mm 1 mps 759 mmHg 64%

    22 September, Saturday

    Time Temperature Precipitation Wind Pressure Humidity
    00:00 +28°C° 0 mm 1 mps 760 mmHg 65%
    01:00 +28°C° 0 mm 1 mps 759 mmHg 66%
    02:00 +27°C° 0 mm 1 mps 759 mmHg 67%
    03:00 +27°C° 0 mm 1 mps 759 mmHg 69%
    04:00 +27°C° 0 mm 1 mps 759 mmHg 70%
    05:00 +26°C° 0 mm 1 mps 760 mmHg 72%
    06:00 +26°C° 0 mm 1 mps 760 mmHg 73%
    07:00 +28°C° 0 mm 2 mps 760 mmHg 62%
    08:00 +31°C° 0 mm 2 mps 761 mmHg 51%
    09:00 +34°C° 0 mm 3 mps 761 mmHg 40%
    10:00 +36°C° 0 mm 3 mps 761 mmHg 37%
    11:00 +37°C° 0 mm 4 mps 760 mmHg 33%
    12:00 +39°C° 0 mm 5 mps 760 mmHg 29%
    13:00 +40°C° 0 mm 5 mps 759 mmHg 28%
    14:00 +40°C° 0 mm 4 mps 758 mmHg 27%
    15:00 +41°C° 0 mm 4 mps 757 mmHg 26%
    16:00 +38°C° 0 mm 4 mps 757 mmHg 28%
    17:00 +37°C° 0 mm 4 mps 757 mmHg 31%
    18:00 +36°C° 0 mm 4 mps 758 mmHg 33%
    19:00 +34°C° 0 mm 3 mps 758 mmHg 41%
    20:00 +33°C° 0 mm 3 mps 759 mmHg 49%
    21:00 +30°C° 0 mm 2 mps 759 mmHg 58%
    22:00 +29°C° 0 mm 2 mps 760 mmHg 61%
    23:00 +29°C° 0 mm 2 mps 760 mmHg 63%

    23 September, Sunday

    Time Temperature Precipitation Wind Pressure Humidity
    00:00 +29°C° 0 mm 1 mps 760 mmHg 66%
    01:00 +28°C° 0 mm 1 mps 759 mmHg 68%
    02:00 +28°C° 0 mm 1 mps 759 mmHg 70%
    03:00 +28°C° 0 mm 1 mps 759 mmHg 71%
    04:00 +27°C° 0 mm 1 mps 759 mmHg 73%
    05:00 +27°C° 0 mm 1 mps 759 mmHg 75%
    06:00 +27°C° 0 mm 2 mps 760 mmHg 77%
    07:00 +29°C° 0 mm 2 mps 760 mmHg 63%
    08:00 +31°C° 0 mm 3 mps 760 mmHg 50%
    09:00 +35°C° 0 mm 3 mps 761 mmHg 37%
    10:00 +36°C° 0 mm 4 mps 760 mmHg 32%
    11:00 +38°C° 0 mm 4 mps 760 mmHg 26%
    12:00 +41°C° 0 mm 5 mps 759 mmHg 21%
    13:00 +41°C° 0 mm 5 mps 758 mmHg 22%
    14:00 +42°C° 0 mm 5 mps 757 mmHg 22%
    15:00 +42°C° 0 mm 5 mps 757 mmHg 23%
    16:00 +40°C° 0 mm 4 mps 757 mmHg 28%
    17:00 +37°C° 0 mm 4 mps 757 mmHg 34%
    18:00 +36°C° 0 mm 3 mps 757 mmHg 39%
    19:00 +34°C° 0 mm 3 mps 758 mmHg 47%
    20:00 +33°C° 0 mm 3 mps 758 mmHg 54%
    21:00 +31°C° 0 mm 2 mps 759 mmHg 61%
    22:00 +30°C° 0 mm 2 mps 759 mmHg 64%
    23:00 +30°C° 0 mm 2 mps 759 mmHg 66%

    24 September, Monday

    Time Temperature Precipitation Wind Pressure Humidity
    00:00 +29°C° 0 mm 2 mps 759 mmHg 69%
    01:00 +29°C° 0 mm 1 mps 759 mmHg 71%
    02:00 +29°C° 0 mm 1 mps 758 mmHg 73%
    03:00 +28°C° 0 mm 1 mps 758 mmHg 76%
    04:00 +28°C° 0.1 mm 1 mps 758 mmHg 77%
    05:00 +27°C° 0.1 mm 2 mps 759 mmHg 78%
    06:00 +27°C° 0.1 mm 2 mps 759 mmHg 80%
    07:00 +29°C° 0 mm 3 mps 759 mmHg 68%
    08:00 +31°C° 0 mm 3 mps 760 mmHg 57%
    09:00 +35°C° 0 mm 3 mps 760 mmHg 45%
    10:00 +37°C° 0 mm 4 mps 759 mmHg 37%
    11:00 +38°C° 0 mm 4 mps 758 mmHg 29%
    12:00 +41°C° 0 mm 4 mps 758 mmHg 21%
    13:00 +42°C° 0 mm 4 mps 757 mmHg 20%
    14:00 +42°C° 0 mm 4 mps 756 mmHg 20%
    15:00 +43°C° 0 mm 4 mps 755 mmHg 19%
    16:00 +40°C° 0 mm 4 mps 755 mmHg 26%
    17:00 +37°C° 0 mm 4 mps 756 mmHg 32%
    18:00 +35°C° 0 mm 4 mps 756 mmHg 39%
    19:00 +34°C° 0 mm 3 mps 757 mmHg 47%
    20:00 +31°C° 0 mm 3 mps 757 mmHg 55%
    21:00 +30°C° 0 mm 2 mps 758 mmHg 63%
    22:00 +30°C° 0 mm 2 mps 758 mmHg 66%
    23:00 +29°C° 0 mm 2 mps 758 mmHg 69%
    Show more